Weather History for KAFO - December, 2013

Change the Weather History Date:

Tuesday, December 17, 2013

  Actual Average Record
Temperature  
Mean Temperature 14 °F -  
Max Temperature 26 °F 29 °F 32 °F (2014)
Min Temperature 3 °F 4 °F 3 °F (2013)
Degree Days  
Heating Degree Days 50    
Moisture  
Dew Point 8 °F    
Average Humidity 82    
Maximum Humidity 92    
Minimum Humidity 59    
Precipitation  
Precipitation 0.00 in - - ()
Sea Level Pressure  
Sea Level Pressure 30.37 in    
Wind  
Wind Speed 0 mph (NW)    
Max Wind Speed 5 mph    
Max Gust Speed -    
Visibility 10 miles    
Events      
Averages and records for this station are not official NWS values.
T = Trace of Precipitation, MM = Missing Value Source: NWS Daily Summary

Daily Weather History Graph

Daily Weather History Graph

Search for Another Location

Airport or City:

Trip Planner

Search our weather history database for the weather conditions in past years. The results will help you decide how hot, cold, wet, or windy it might be!

Date:

Astronomy

Dec. 17, 2013 Rise Set
Actual Time 7:48 AM MST 4:51 PM MST
Civil Twilight 7:16 AM MST 5:23 PM MST
Nautical Twilight 6:40 AM MST 5:59 PM MST
Astronomical Twilight 6:06 AM MST 6:33 PM MST
Moon 5:35 PM MST (12/17) 7:46 AM MST (12/17)
Length of Visible Light 10h 07m
Length of Day
9h 02m
Full, 100% of the Moon is Illuminated
Dec 17
Full
Dec 25
Last Quarter
Jan 1
New
Jan 7
First Quarter
Jan 15
Full

Hourly Weather History & Observations

Time (MST) Temp. Windchill Dew Point Humidity Pressure Visibility Wind Dir Wind Speed Gust Speed Precip Events Conditions
12:15 AM 8.6 °F - 5.0 °F 85% 30.48 in 10.0 mi Calm Calm - N/A   Clear
12:35 AM 10.4 °F - 6.8 °F 85% 30.46 in 10.0 mi Calm Calm - N/A   Clear
12:55 AM 8.6 °F - 5.0 °F 85% 30.46 in 10.0 mi Calm Calm - N/A   Clear
1:15 AM 8.6 °F - 5.0 °F 85% 30.47 in 10.0 mi Calm Calm - N/A   Clear
1:35 AM 8.6 °F - 5.0 °F 85% 30.47 in 10.0 mi Calm Calm - N/A   Clear
1:55 AM 6.8 °F - 3.2 °F 85% 30.47 in 10.0 mi Calm Calm - N/A   Clear
2:15 AM 5.0 °F -2.1 °F 1.4 °F 85% 30.47 in 10.0 mi SSW 3.5 mph - N/A   Clear
2:35 AM 5.0 °F - 3.2 °F 92% 30.48 in 10.0 mi Calm Calm - N/A   Clear
2:55 AM 6.8 °F - 3.2 °F 85% 30.48 in 10.0 mi Calm Calm - N/A   Clear
3:15 AM 3.2 °F - -0.4 °F 85% 30.48 in 10.0 mi Calm Calm - N/A   Clear
3:35 AM 8.6 °F 2.0 °F 5.0 °F 85% 30.48 in 10.0 mi NNE 3.5 mph - N/A   Clear
3:55 AM 8.6 °F - 5.0 °F 85% 30.48 in 10.0 mi Calm Calm - N/A   Clear
4:15 AM 5.0 °F - 3.2 °F 92% 30.48 in 10.0 mi Calm Calm - N/A   Clear
4:35 AM 5.0 °F - 1.4 °F 85% 30.48 in 10.0 mi Calm Calm - N/A   Clear
4:55 AM 5.0 °F - 3.2 °F 92% 30.49 in 10.0 mi Calm Calm - N/A   Clear
5:15 AM 5.0 °F - 3.2 °F 92% 30.49 in 10.0 mi Calm Calm - N/A   Clear
5:35 AM 8.6 °F - 5.0 °F 85% 30.48 in 10.0 mi Calm Calm - N/A   Clear
5:55 AM 3.2 °F - -0.4 °F 85% 30.48 in 10.0 mi Calm Calm - N/A   Clear
6:15 AM 5.0 °F - 3.2 °F 92% 30.48 in 10.0 mi Calm Calm - N/A   Clear
6:35 AM 5.0 °F - 3.2 °F 92% 30.48 in 10.0 mi Calm Calm - N/A   Clear
6:55 AM 5.0 °F - 3.2 °F 92% 30.48 in 10.0 mi Calm Calm - N/A   Clear
7:15 AM 5.0 °F - 3.2 °F 92% 30.48 in 10.0 mi Calm Calm - N/A   Clear
7:35 AM 5.0 °F - 1.4 °F 85% 30.48 in 10.0 mi Calm Calm - N/A   Clear
7:55 AM 3.2 °F - 1.4 °F 92% 30.48 in 10.0 mi Calm Calm - N/A   Clear
8:15 AM 5.0 °F - 3.2 °F 92% 30.48 in 10.0 mi Calm Calm - N/A   Clear
8:35 AM 3.2 °F - 1.4 °F 92% 30.48 in 10.0 mi Calm Calm - N/A   Clear
8:55 AM 5.0 °F - 1.4 °F 85% 30.48 in 10.0 mi Calm Calm - N/A   Clear
9:15 AM 6.8 °F - 3.2 °F 85% 30.48 in 7.0 mi North - - N/A   Clear
9:35 AM 8.6 °F - 5.0 °F 85% 30.47 in 10.0 mi North - - N/A   Clear
9:55 AM 10.4 °F - 8.6 °F 92% 30.47 in 10.0 mi Calm Calm - N/A   Clear
10:15 AM 12.2 °F - 8.6 °F 85% 30.46 in 10.0 mi Calm Calm - N/A   Clear
10:35 AM 14.0 °F - 10.4 °F 86% 30.46 in 10.0 mi Calm Calm - N/A   Clear
10:55 AM 15.8 °F - 12.2 °F 86% 30.45 in 10.0 mi Calm Calm - N/A   Clear
11:15 AM 17.6 °F - 10.4 °F 73% 30.44 in 10.0 mi Calm Calm - N/A   Clear
11:35 AM 17.6 °F - 12.2 °F 79% 30.43 in 10.0 mi Calm Calm - N/A   Clear
11:55 AM 19.4 °F - 12.2 °F 74% 30.42 in 10.0 mi North - - N/A   Clear
12:15 PM 21.2 °F - 12.2 °F 68% 30.40 in 10.0 mi Calm Calm - N/A   Clear
12:35 PM 21.2 °F - 12.2 °F 68% 30.38 in 10.0 mi Calm Calm - N/A   Clear
12:55 PM 21.2 °F - 12.2 °F 68% 30.37 in 10.0 mi North - - N/A   Clear
1:15 PM 23.0 °F - 14.0 °F 68% 30.36 in 10.0 mi North - - N/A   Clear
1:35 PM 26.6 °F - 14.0 °F 59% 30.34 in 10.0 mi Calm Calm - N/A   Clear
1:55 PM 24.8 °F - 14.0 °F 64% 30.33 in 10.0 mi Calm Calm - N/A   Clear
2:15 PM 26.6 °F - 15.8 °F 64% 30.33 in 10.0 mi Calm Calm - N/A   Clear
2:35 PM 26.6 °F - 15.8 °F 64% 30.31 in 10.0 mi Calm Calm - N/A   Clear
2:55 PM 26.6 °F - 15.8 °F 64% 30.31 in 10.0 mi Calm Calm - N/A   Clear
3:15 PM 26.6 °F - 15.8 °F 64% 30.30 in 10.0 mi Calm Calm - N/A   Clear
3:35 PM 26.6 °F - 15.8 °F 64% 30.30 in 10.0 mi Calm Calm - N/A   Clear
3:55 PM 24.8 °F - 15.8 °F 69% 30.30 in 10.0 mi Calm Calm - N/A   Clear
4:15 PM 23.0 °F - 15.8 °F 74% 30.30 in 10.0 mi Calm Calm - N/A   Clear
4:35 PM 21.2 °F - 14.0 °F 74% 30.30 in 10.0 mi Calm Calm - N/A   Clear
4:55 PM 21.2 °F - 14.0 °F 74% 30.29 in 10.0 mi Calm Calm - N/A   Clear
5:16 PM 17.6 °F - 12.2 °F 79% 30.28 in 10.0 mi Calm Calm - N/A   Clear
5:35 PM 17.6 °F - 12.2 °F 79% 30.28 in 10.0 mi Calm Calm - N/A   Clear
5:55 PM 15.8 °F - 12.2 °F 86% 30.28 in 10.0 mi Calm Calm - N/A   Clear
6:15 PM 15.8 °F - 12.2 °F 86% 30.27 in 10.0 mi Calm Calm - N/A   Clear
6:35 PM 15.8 °F - 12.2 °F 86% 30.27 in 10.0 mi Calm Calm - N/A   Clear
6:55 PM 19.4 °F - 12.2 °F 74% 30.26 in 10.0 mi Calm Calm - N/A   Clear
7:18 PM 14.0 °F - 10.4 °F 86% 30.27 in 10.0 mi Calm Calm - N/A   Clear
7:37 PM 14.0 °F - 8.6 °F 79% 30.26 in 10.0 mi Calm Calm - N/A   Clear
7:57 PM 14.0 °F - 10.4 °F 86% 30.25 in 10.0 mi Calm Calm - N/A   Clear
8:13 PM 14.0 °F 8.2 °F 10.4 °F 86% 30.25 in 10.0 mi West 3.5 mph - N/A   Clear
8:36 PM 14.0 °F - 10.4 °F 86% 30.24 in 10.0 mi Calm Calm - N/A   Clear
8:55 PM 10.4 °F - 6.8 °F 85% 30.22 in 10.0 mi Calm Calm - N/A   Clear
9:15 PM 12.2 °F 4.3 °F 10.4 °F 92% 30.22 in 10.0 mi North 4.6 mph - N/A   Clear
9:35 PM 14.0 °F - 10.4 °F 86% 30.22 in 10.0 mi Calm Calm - N/A   Clear
9:55 PM 12.2 °F - 8.6 °F 85% 30.21 in 10.0 mi Calm Calm - N/A   Clear
10:15 PM 14.0 °F - 10.4 °F 86% 30.21 in 10.0 mi Calm Calm - N/A   Clear
10:35 PM 12.2 °F - 10.4 °F 92% 30.20 in 10.0 mi Calm Calm - N/A   Clear
10:55 PM 10.4 °F - 8.6 °F 92% 30.20 in 10.0 mi Calm Calm - N/A   Clear
11:15 PM 14.0 °F - 10.4 °F 86% 30.19 in 10.0 mi Calm Calm - N/A   Clear
11:35 PM 15.8 °F - 10.4 °F 79% 30.18 in 10.0 mi Calm Calm - N/A   Clear
11:55 PM 15.8 °F - 12.2 °F 86% 30.18 in 10.0 mi Calm Calm - N/A   Clear